Time,TemperatureF,DewpointF,PressureIn,WindDirection,WindDirectionDegrees,WindSpeedMPH,WindSpeedGustMPH,Humidity,HourlyPrecipIn,Conditions,Clouds,dailyrainin,SoftwareType,DateUTC
2013-05-20 00:14:00,71.1,69.0,30.06,SE,131,0.0,0.0,93,0.00,,,0.00,weatherlink.com 1.10,2013-05-20 04:14:00,
2013-05-20 00:29:00,70.7,69.0,30.05,SE,131,0.0,0.0,94,0.00,,,0.00,weatherlink.com 1.10,2013-05-20 04:29:00,
2013-05-20 00:44:00,70.3,69.0,30.06,SE,131,0.0,0.0,94,0.00,,,0.00,weatherlink.com 1.10,2013-05-20 04:44:00,
2013-05-20 00:59:00,69.8,68.0,30.05,SE,131,0.0,0.0,95,0.00,,,0.00,weatherlink.com 1.10,2013-05-20 04:59:00,
2013-05-20 01:15:00,69.6,68.0,30.05,SE,131,0.0,0.0,95,0.00,,,0.00,weatherlink.com 1.10,2013-05-20 05:15:00,
2013-05-20 01:30:00,69.2,68.0,30.05,SE,131,0.0,0.0,95,0.00,,,0.00,weatherlink.com 1.10,2013-05-20 05:30:00,
2013-05-20 01:45:00,69.2,68.0,30.04,SE,131,0.0,0.0,95,0.00,,,0.00,weatherlink.com 1.10,2013-05-20 05:45:00,
2013-05-20 02:00:00,69.7,69.0,30.03,SE,131,0.0,0.0,96,0.00,,,0.00,weatherlink.com 1.10,2013-05-20 06:00:00,
2013-05-20 02:15:00,69.8,69.0,30.02,SE,131,0.0,0.0,96,0.00,,,0.00,weatherlink.com 1.10,2013-05-20 06:15:00,
2013-05-20 02:30:00,69.7,69.0,30.01,SE,131,0.0,0.0,96,0.00,,,0.00,weatherlink.com 1.10,2013-05-20 06:30:00,
2013-05-20 02:45:00,69.5,68.0,30.01,SE,131,0.0,0.0,96,0.00,,,0.00,weatherlink.com 1.10,2013-05-20 06:45:00,
2013-05-20 03:00:00,69.2,68.0,30.01,SE,131,0.0,0.0,96,0.00,,,0.00,weatherlink.com 1.10,2013-05-20 07:00:00,
2013-05-20 03:15:00,68.7,68.0,30.00,SE,131,0.0,0.0,96,0.00,,,0.00,weatherlink.com 1.10,2013-05-20 07:15:00,
2013-05-20 03:30:00,68.5,67.0,30.00,SE,131,0.0,0.0,96,0.00,,,0.00,weatherlink.com 1.10,2013-05-20 07:30:00,
2013-05-20 03:45:00,68.3,67.0,30.00,SE,131,0.0,0.0,96,0.00,,,0.00,weatherlink.com 1.10,2013-05-20 07:45:00,
2013-05-20 04:00:00,68.4,67.0,30.00,SE,131,0.0,0.0,96,0.00,,,0.00,weatherlink.com 1.10,2013-05-20 08:00:00,
2013-05-20 04:15:00,68.2,67.0,30.00,SE,131,0.0,-999.0,97,-99.99,,,0.00,weatherlink.com 1.10,2013-05-20 08:15:00,
2013-05-20 04:30:00,68.4,68.0,30.00,SE,131,0.0,0.0,97,0.00,,,0.00,weatherlink.com 1.10,2013-05-20 08:30:00,
2013-05-20 04:45:00,68.2,67.0,29.98,SE,131,0.0,0.0,97,0.00,,,0.00,weatherlink.com 1.10,2013-05-20 08:45:00,
2013-05-20 05:00:00,68.1,67.0,29.98,SE,131,0.0,0.0,97,0.00,,,0.00,weatherlink.com 1.10,2013-05-20 09:00:00,
2013-05-20 05:15:00,68.0,67.0,29.98,SE,131,0.0,0.0,97,0.00,,,0.00,weatherlink.com 1.10,2013-05-20 09:15:00,
2013-05-20 05:30:00,68.0,67.0,29.99,SE,131,0.0,0.0,97,0.00,,,0.00,weatherlink.com 1.10,2013-05-20 09:30:00,
2013-05-20 05:45:00,67.9,67.0,30.00,SE,131,0.0,0.0,97,0.00,,,0.00,weatherlink.com 1.10,2013-05-20 09:45:00,
2013-05-20 06:00:00,68.3,68.0,30.01,SE,131,0.0,0.0,97,0.00,,,0.00,weatherlink.com 1.10,2013-05-20 10:00:00,
2013-05-20 06:15:00,68.4,68.0,30.01,SE,131,0.0,0.0,97,0.00,,,0.00,weatherlink.com 1.10,2013-05-20 10:15:00,
2013-05-20 06:30:00,68.6,68.0,30.02,SE,131,0.0,0.0,97,0.00,,,0.00,weatherlink.com 1.10,2013-05-20 10:30:00,
2013-05-20 06:45:00,68.7,68.0,30.02,SE,131,0.0,0.0,97,0.00,,,0.00,weatherlink.com 1.10,2013-05-20 10:45:00,
2013-05-20 07:00:00,69.0,68.0,30.02,SE,131,0.0,0.0,97,0.00,,,0.00,weatherlink.com 1.10,2013-05-20 11:00:00,
2013-05-20 07:15:00,69.0,68.0,30.03,SE,131,0.0,0.0,97,0.00,,,0.00,weatherlink.com 1.10,2013-05-20 11:15:00,
2013-05-20 07:30:00,69.9,69.0,30.04,SE,131,0.0,0.0,98,0.00,,,0.00,weatherlink.com 1.10,2013-05-20 11:30:00,
2013-05-20 07:45:00,70.5,70.0,30.05,SE,131,0.0,0.0,98,0.00,,,0.00,weatherlink.com 1.10,2013-05-20 11:45:00,
2013-05-20 08:00:00,71.2,71.0,30.05,SE,131,0.0,0.0,98,0.00,,,0.00,weatherlink.com 1.10,2013-05-20 12:00:00,
2013-05-20 08:15:00,72.0,71.0,30.05,SE,131,0.0,0.0,98,0.00,,,0.00,weatherlink.com 1.10,2013-05-20 12:15:00,
2013-05-20 08:30:00,72.5,72.0,30.06,SE,131,0.0,0.0,98,0.00,,,0.00,weatherlink.com 1.10,2013-05-20 12:30:00,
2013-05-20 08:45:00,73.2,73.0,30.06,SE,131,0.0,0.0,98,0.00,,,0.00,weatherlink.com 1.10,2013-05-20 12:45:00,
2013-05-20 09:00:00,74.7,74.0,30.06,SE,131,0.0,0.0,98,0.00,,,0.00,weatherlink.com 1.10,2013-05-20 13:00:00,
2013-05-20 09:15:00,74.7,74.0,30.06,ESE,105,1.0,2.0,96,0.00,,,0.00,weatherlink.com 1.10,2013-05-20 13:15:00,
2013-05-20 09:30:00,76.2,74.0,30.06,ESE,117,0.0,0.0,93,0.00,,,0.00,weatherlink.com 1.10,2013-05-20 13:30:00,
2013-05-20 09:45:00,77.1,73.0,30.06,SE,132,1.0,1.0,88,0.00,,,0.00,weatherlink.com 1.10,2013-05-20 13:45:00,
2013-05-20 10:00:00,78.6,73.0,30.07,SE,127,1.0,1.0,84,0.00,,,0.00,weatherlink.com 1.10,2013-05-20 14:00:00,
2013-05-20 10:15:00,79.5,74.0,30.06,ESE,117,0.0,3.0,82,0.00,,,0.00,weatherlink.com 1.10,2013-05-20 14:15:00,
2013-05-20 10:31:00,81.5,74.0,30.06,ESE,108,1.0,4.0,79,0.00,,,0.00,weatherlink.com 1.10,2013-05-20 14:31:00,
2013-05-20 10:46:00,82.3,74.0,30.06,WNW,290,0.0,3.0,77,0.00,,,0.00,weatherlink.com 1.10,2013-05-20 14:46:00,
2013-05-20 11:01:00,82.1,75.0,30.06,ESE,118,0.0,2.0,78,0.00,,,0.00,weatherlink.com 1.10,2013-05-20 15:01:00,
2013-05-20 11:16:00,82.1,73.0,30.06,SE,136,4.0,5.0,74,0.00,,,0.00,weatherlink.com 1.10,2013-05-20 15:16:00,
2013-05-20 11:31:00,82.4,73.0,30.06,ESE,123,2.0,5.0,73,0.00,,,0.00,weatherlink.com 1.10,2013-05-20 15:31:00,
2013-05-20 11:46:00,83.6,75.0,30.06,East,99,4.0,8.0,74,0.00,,,0.00,weatherlink.com 1.10,2013-05-20 15:46:00,
2013-05-20 12:01:00,81.2,73.0,30.06,ESE,117,4.0,11.0,75,0.00,,,0.00,weatherlink.com 1.10,2013-05-20 16:01:00,
2013-05-20 12:16:00,79.5,73.0,30.06,ESE,108,0.0,6.0,80,0.00,,,0.00,weatherlink.com 1.10,2013-05-20 16:16:00,
2013-05-20 12:31:00,78.6,73.0,30.06,SE,146,1.0,6.0,83,0.00,,,0.00,weatherlink.com 1.10,2013-05-20 16:31:00,
2013-05-20 12:46:00,78.9,72.0,30.06,ESE,104,2.0,6.0,80,0.00,,,0.00,weatherlink.com 1.10,2013-05-20 16:46:00,
2013-05-20 13:01:00,79.7,72.0,30.05,SE,129,1.0,5.0,78,0.00,,,0.00,weatherlink.com 1.10,2013-05-20 17:01:00,
2013-05-20 13:16:00,81.6,73.0,30.05,SE,135,3.0,7.0,75,0.00,,,0.00,weatherlink.com 1.10,2013-05-20 17:16:00,
2013-05-20 13:31:00,82.0,72.0,30.05,ESE,122,1.0,8.0,72,0.00,,,0.00,weatherlink.com 1.10,2013-05-20 17:31:00,
2013-05-20 13:46:00,81.4,72.0,30.05,SSE,148,2.0,8.0,72,0.00,,,0.00,weatherlink.com 1.10,2013-05-20 17:46:00,
2013-05-20 14:01:00,81.2,71.0,30.04,ESE,120,6.0,8.0,72,0.00,,,0.00,weatherlink.com 1.10,2013-05-20 18:01:00,
2013-05-20 14:16:00,80.3,70.0,30.04,East,101,2.0,10.0,71,0.00,,,0.00,weatherlink.com 1.10,2013-05-20 18:16:00,
2013-05-20 14:31:00,79.9,70.0,30.04,ESE,107,6.0,8.0,72,0.00,,,0.00,weatherlink.com 1.10,2013-05-20 18:31:00,
2013-05-20 14:46:00,82.0,71.0,30.03,East,96,2.0,8.0,70,0.00,,,0.00,weatherlink.com 1.10,2013-05-20 18:46:00,
2013-05-20 15:01:00,83.1,71.0,30.02,SE,124,6.0,9.0,67,0.00,,,0.00,weatherlink.com 1.10,2013-05-20 19:01:00,
2013-05-20 15:16:00,83.4,71.0,30.01,ENE,63,1.0,9.0,66,0.00,,,0.00,weatherlink.com 1.10,2013-05-20 19:16:00,
2013-05-20 15:31:00,83.3,69.0,30.01,East,90,4.0,10.0,63,0.00,,,0.00,weatherlink.com 1.10,2013-05-20 19:31:00,
2013-05-20 15:46:00,83.0,69.0,29.99,ESE,117,6.0,11.0,63,0.00,,,0.00,weatherlink.com 1.10,2013-05-20 19:46:00,
2013-05-20 16:02:00,83.1,69.0,30.00,East,88,3.0,12.0,63,0.00,,,0.00,weatherlink.com 1.10,2013-05-20 20:02:00,
2013-05-20 16:16:00,81.4,69.0,29.99,ESE,117,7.0,9.0,66,0.00,,,0.00,weatherlink.com 1.10,2013-05-20 20:16:00,
2013-05-20 16:31:00,81.3,70.0,29.99,ESE,115,3.0,12.0,69,0.00,,,0.00,weatherlink.com 1.10,2013-05-20 20:31:00,
2013-05-20 16:46:00,82.5,71.0,29.99,SE,138,4.0,10.0,69,0.00,,,0.00,weatherlink.com 1.10,2013-05-20 20:46:00,
2013-05-20 17:01:00,82.2,72.0,29.99,SSW,211,3.0,13.0,70,0.00,,,0.00,weatherlink.com 1.10,2013-05-20 21:01:00,
2013-05-20 17:16:00,82.0,71.0,29.98,SE,146,6.0,10.0,69,0.00,,,0.00,weatherlink.com 1.10,2013-05-20 21:16:00,
2013-05-20 17:31:00,81.9,71.0,29.98,SE,141,3.0,6.0,69,0.00,,,0.00,weatherlink.com 1.10,2013-05-20 21:31:00,
2013-05-20 17:46:00,80.8,71.0,29.98,ESE,117,3.0,7.0,72,0.00,,,0.00,weatherlink.com 1.10,2013-05-20 21:46:00,
2013-05-20 18:01:00,79.4,71.0,29.99,ESE,120,2.0,8.0,75,0.00,,,0.00,weatherlink.com 1.10,2013-05-20 22:01:00,
2013-05-20 18:16:00,78.9,71.0,30.00,ENE,67,4.0,8.0,77,0.00,,,0.00,weatherlink.com 1.10,2013-05-20 22:16:00,
2013-05-20 18:31:00,78.1,71.0,29.99,ESE,114,3.0,7.0,79,0.00,,,0.00,weatherlink.com 1.10,2013-05-20 22:31:00,
2013-05-20 18:46:00,77.7,71.0,29.99,SE,135,1.0,8.0,80,0.00,,,0.00,weatherlink.com 1.10,2013-05-20 22:46:00,
2013-05-20 19:01:00,77.2,72.0,30.01,East,81,2.0,7.0,83,0.00,,,0.00,weatherlink.com 1.10,2013-05-20 23:01:00,
2013-05-20 19:16:00,76.9,72.0,30.01,SE,139,1.0,4.0,84,0.00,,,0.00,weatherlink.com 1.10,2013-05-20 23:16:00,
2013-05-20 19:31:00,76.5,71.0,30.02,East,101,2.0,5.0,84,0.00,,,0.00,weatherlink.com 1.10,2013-05-20 23:31:00,
2013-05-20 19:46:00,76.4,71.0,30.03,ESE,108,2.0,3.0,82,0.00,,,0.00,weatherlink.com 1.10,2013-05-20 23:46:00,
2013-05-20 20:01:00,76.4,71.0,30.03,SSE,154,2.0,4.0,82,0.00,,,0.00,weatherlink.com 1.10,2013-05-21 00:01:00,
2013-05-20 20:16:00,76.4,71.0,30.04,SSW,201,2.0,7.0,83,0.00,,,0.00,weatherlink.com 1.10,2013-05-21 00:16:00,
2013-05-20 20:31:00,74.2,69.0,30.04,SSE,163,2.0,6.0,83,0.00,,,0.00,weatherlink.com 1.10,2013-05-21 00:31:00,
2013-05-20 20:46:00,72.6,69.0,30.04,ESE,114,0.0,4.0,87,0.00,,,0.00,weatherlink.com 1.10,2013-05-21 00:46:00,
2013-05-20 21:01:00,72.5,70.0,30.03,SE,126,1.0,2.0,91,0.01,,,0.01,weatherlink.com 1.10,2013-05-21 01:01:00,
2013-05-20 21:16:00,72.5,70.0,30.02,ESE,116,2.0,4.0,93,0.01,,,0.01,weatherlink.com 1.10,2013-05-21 01:16:00,
2013-05-20 21:32:00,72.8,71.0,30.01,ESE,113,3.0,4.0,94,0.01,,,0.01,weatherlink.com 1.10,2013-05-21 01:32:00,
2013-05-20 21:46:00,72.8,71.0,30.00,ESE,113,1.0,6.0,94,0.01,,,0.01,weatherlink.com 1.10,2013-05-21 01:46:00,
2013-05-20 22:01:00,72.5,70.0,30.02,West,271,0.0,3.0,93,0.00,,,0.01,weatherlink.com 1.10,2013-05-21 02:01:00,
2013-05-20 22:16:00,72.4,70.0,30.02,West,271,0.0,0.0,93,0.00,,,0.01,weatherlink.com 1.10,2013-05-21 02:16:00,
2013-05-20 22:31:00,72.2,70.0,30.02,West,269,0.0,0.0,94,0.00,,,0.01,weatherlink.com 1.10,2013-05-21 02:31:00,
2013-05-20 22:46:00,72.1,70.0,30.03,West,270,0.0,0.0,94,0.00,,,0.01,weatherlink.com 1.10,2013-05-21 02:46:00,
2013-05-20 23:01:00,71.9,70.0,30.02,West,270,0.0,0.0,94,0.00,,,0.01,weatherlink.com 1.10,2013-05-21 03:01:00,
2013-05-20 23:16:00,71.7,70.0,30.03,West,270,0.0,0.0,94,0.00,,,0.01,weatherlink.com 1.10,2013-05-21 03:16:00,
2013-05-20 23:31:00,71.8,70.0,30.02,West,270,0.0,0.0,95,0.00,,,0.01,weatherlink.com 1.10,2013-05-21 03:31:00,
2013-05-20 23:46:00,72.1,71.0,30.02,ESE,120,0.0,1.0,95,0.00,,,0.01,weatherlink.com 1.10,2013-05-21 03:46:00,